This is the latest recevied weather packets stored in our database for station/object OE9GTV. If no packets are shown the sender has not sent any weather packets the latest 10 day(s).
| Time | Temp. | Humidity | Pressure | Rain* | Wind** | Luminosity | Snow |
|---|---|---|---|---|---|---|---|
| 1777536073 | 11.67° C | 63% | 1020.3 hPa | 0 mm | - | 0 W/m² | - |
| 1777534273 | 10.56° C | 68% | 1020.4 hPa | 0 mm | - | 0 W/m² | - |
| 1777533673 | 10° C | 75% | 1020.4 hPa | 0 mm | - | 0 W/m² | - |
| 1777533073 | 7.78° C | 87% | 1020.5 hPa | 0 mm | - | 0 W/m² | - |
| 1777532473 | 7.22° C | 87% | 1020.5 hPa | 0 mm | - | 0 W/m² | - |
| 1777531873 | 6.67° C | 87% | 1020.4 hPa | 0 mm | - | 0 W/m² | - |
| 1777531273 | 6.11° C | 86% | 1020.5 hPa | 0 mm | - | 0 W/m² | - |
| 1777530673 | 5.56° C | 85% | 1020.3 hPa | 0 mm | - | 0 W/m² | - |
| 1777530073 | 5.56° C | 85% | 1020.4 hPa | 0 mm | - | 0 W/m² | - |
| 1777529473 | 5° C | 84% | 1020.3 hPa | 0 mm | - | 0 W/m² | - |
| 1777528873 | 5° C | 84% | 1020.3 hPa | 0 mm | - | 0 W/m² | - |
| 1777528273 | 5° C | 84% | 1020.2 hPa | 0 mm | - | 0 W/m² | - |
| 1777527673 | 5° C | 84% | 1020.3 hPa | 0 mm | - | 0 W/m² | - |
| 1777527073 | 5° C | 84% | 1020.1 hPa | 0 mm | - | 0 W/m² | - |
| 1777526473 | 5° C | 83% | 1020 hPa | 0 mm | - | 0 W/m² | - |
| 1777525872 | 5° C | 83% | 1020 hPa | 0 mm | - | 0 W/m² | - |
| 1777525272 | 5° C | 83% | 1019.8 hPa | 0 mm | - | 0 W/m² | - |
| 1777524672 | 5° C | 83% | 1019.8 hPa | 0 mm | - | 0 W/m² | - |
| 1777524072 | 5° C | 83% | 1019.8 hPa | 0 mm | - | 0 W/m² | - |
| 1777523472 | 5.56° C | 83% | 1019.7 hPa | 0 mm | - | 0 W/m² | - |
| 1777522872 | 5.56° C | 82% | 1019.6 hPa | 0 mm | - | 0 W/m² | - |
| 1777522272 | 5.56° C | 82% | 1019.5 hPa | 0 mm | - | 0 W/m² | - |
| 1777521672 | 5.56° C | 82% | 1019.4 hPa | 0 mm | - | 0 W/m² | - |
| 1777521073 | 6.11° C | 82% | 1019.3 hPa | 0 mm | - | 0 W/m² | - |
| 1777520472 | 6.11° C | 82% | 1019.3 hPa | 0 mm | - | 0 W/m² | - |
* Rain latest hour (hover to see other rain measurements)
** Current wind speed in m/s (hover to see current wind gust speed)